OBJECT A, 62725

Orbit data source: Space-Track

You're viewing an Uncataloged Satellite

Recently launched and/or uncataloged satellites may have evolving metadata. Metadata may include but not limited to: Owner, Maufacturer, Bus, Motor, and Mission.

OBJECT A, 62725 is a satellite owned by SUPARCO (CN) in SSO that was launched on Fri, 17 Jan 2025 UTC via a CHANG ZHENG 2D launch vehicle from the Jiuquan Satellite Launch Center, China (JSC). Unknown objects in Earth's orbit typically refer to objects detected orbiting the Earth but have not yet been identified or cataloged. These objects could be anything from previously untracked satellites, spent rocket stages, debris from satellite collisions, or even natural meteoroids temporarily captured by Earth's gravity.

Loading next visibility...
Identifier
62725, 2025-012A
Orbit
SSO
Last TLE update
4 hours ago
Origin
Flag of CNSUPA (CN / PRC)
Manufacturer
SUPARCO
Mission
Operational Civil Imaging
Bus & Motor
PRSC-EO, Unknown motor
Mass
~500 kg wet, ~500 kg dry
Launch date (UTC)
2025-01-17 (6 months ago)
Launch vehicle
CHANG ZHENG 2D
Launch site
Jiuquan Satellite Launch Center, China (JSC)
Object type
Unknown
Shape & HBR
Box + 2 Pan, 8 m
Radar Cross Section
6.755 m², Large (>1 m²)

Expand to show TLE details & history

TLE from 4 hours ago
0 OBJECT A
1 62725U 25012A   25186.58964472  .00006708  00000-0  33582-3 0  9994
2 62725  97.4623 259.9605 0009530  59.2029 301.0142 15.17685882 25622
Epoch: 2025-07-05T14:09Z
TLE epoch observation values (Epoch: 2025-07-05T14:09:05.303Z)
Latitude
-0°
Longitude
123.86289°
Altitude
512.542 km
Speed
7.609 km/s
True Right ascension
17h 19m 50s
True Declination
0° 00' 00"
Sunlit
Object was in full shadow at epoch
Visualization orbit readout
Latitude
-67.32233°
Longitude
-74.12718°
Altitude
544.761 km
Speed
7.585 km/s
Apparent Right ascension
20h 15m 03s
Apparent Declination
-73° 48' 57"
Sunlit
Object is in daylight
Visualization observer readout
Local Sidereal Time
06:19:56
Azimuth
193.03° SSW
Elevation
-53.476°
Doppler factor
1
Orbital elements
Apogee altitude
516.372 km
Perigee altitude
503.244 km
Semi-major axis
6,887.945 km
Eccentricity
0.00095
Inclination
97.4623°
RAAN
259.9605°
Arg. of periapsis
59.2029°
True anomaly
Unknown
Mean anomaly
301.0142°
Eccentric anomaly
Unknown
Mean motion
3.79672 °/min
Orbital period
94.82 mins
BSTAR
0.00033582
Loading maneuver chart data...
Loading SW <> Apogee altitude chart data...
Loading historical data...
Loading historical data...
Loading historical data...
Loading historical data...
Loading historical data...
Loading historical data...
Loading historical data...
Other satellites on launch #12 in the year 2025 (2025-01-17 UTC)

OBJECT A Visibility forecast

Observer location: undefined°, undefined°

Span
Click to sort rows by Start time (UTC) header in descending order
Start Az.
Max El. time (UTC)
Max El. Az.
Max El.
End time (UTC)
End Az.
6 mins2025-07-06 04:31:24.820Z141.097° SSE2025-07-06 04:34:24.820Z76.019° E32.786°2025-07-06 04:37:24.820Z6.453° NNE
6 mins2025-07-06 17:37:24.820Z21.698° NNE2025-07-06 17:40:24.820Z143.979° SSE40.287°2025-07-06 17:43:24.820Z183.342° SSW
|